Home   Weather   Aalborg   Past weeks
Flag for Denmark

Past Weather in Aalborg, Denmark — Yesterday and Last 2 Weeks

Now
52 °F

Passing clouds.


Feels Like: 47 °F
Forecast: 60 / 47 °F
Wind: 14 mph from West

Location: Aalborg Airport

Current Time: May 24, 2019 at 11:18:42 pm

Latest Report: May 24, 2019 at 10:50 pm


Visibility: N/A

Pressure: 29.77 "Hg

Humidity: 88%

Dew Point: 48 °F

Location of AalborgLocation

Past Weather in Aalborg — Graph

°F

Aalborg Temperature Yesterday

Maximum temperature yesterday: 63 °F (at 1:20 pm)
Minimum temperature yesterday: 46 °F (at 12:50 am)
Average temperature yesterday: 55 °F

High & Low Weather Summary for the Past Weeks

 TemperatureHumidityPressure
High72 °F (May 21, 12:20 pm)100% (May 9, 9:50 pm)30.66 "Hg (May 9, 9:50 pm)
Low36 °F (May 15, 4:11 am)31% (May 14, 2:20 pm)29.50 "Hg (May 9, 9:20 pm)
Average52 °F79%30.03 "Hg
* Reported May 9 9:20 pm — May 24 9:50 pm, Aalborg. Weather by CustomWeather, © 2019

Note: Actual official high and low records may vary slightly from our data, if they occured in-between our weather recording intervals... More about our weather records

Advertising

Aalborg Weather History for the Previous 24 Hours

Scroll right to see more
 ConditionsComfort  
Time TempWeatherWind HumidityBarometerVisibility
9:50 pm
Fri, May 24
52 °FPartly cloudy.14 mph88%29.77 "HgN/A
9:20 pm52 °FBroken clouds.14 mph82%29.74 "HgN/A
8:50 pm52 °FPassing clouds.16 mph88%29.74 "HgN/A
7:50 pm54 °FCool.16 mph77%29.74 "HgN/A
7:20 pm55 °FCool.17 mph72%29.74 "HgN/A
6:50 pm55 °FPassing clouds.16 mph72%29.74 "HgN/A
6:20 pm55 °FScattered clouds.16 mph72%29.74 "HgN/A
5:50 pm55 °FScattered clouds.16 mph72%29.74 "HgN/A
5:20 pm55 °FBroken clouds.21 mph77%29.71 "HgN/A
4:50 pm57 °FPartly sunny.20 mph72%29.71 "HgN/A
4:20 pm55 °FPartly sunny.22 mph77%29.74 "HgN/A
3:50 pm55 °FBroken clouds.20 mph77%29.71 "HgN/A
3:20 pm55 °FBroken clouds.16 mph72%29.71 "HgN/A
2:50 pm54 °FBroken clouds.14 mph77%29.71 "HgN/A
2:20 pm54 °FBroken clouds.16 mph77%29.71 "HgN/A
1:50 pm54 °FBroken clouds.15 mph77%29.71 "HgN/A
1:20 pm54 °FPartly sunny.15 mph82%29.71 "HgN/A
12:50 pm52 °FSprinkles. Broken clouds.16 mph88%29.71 "HgN/A
12:20 pm52 °FSprinkles. Partly sunny.15 mph94%29.71 "HgN/A
11:52 am52 °FSprinkles. Partly sunny.20 mph94%29.71 "Hg1 mi
11:31 am52 °FHeavy rain. Broken clouds.22 mph94%29.71 "Hg6 mi
11:20 am55 °FBroken clouds.22 mph82%29.71 "HgN/A
10:50 am52 °FBroken clouds.22 mph94%29.71 "HgN/A
10:21 am52 °FLight rain. Partly sunny.23 mph94%29.71 "HgN/A
9:50 am50 °FLight rain. Fog.18 mph94%29.71 "Hg2 mi
9:20 am50 °FBroken clouds.20 mph94%29.71 "HgN/A
8:50 am52 °FBroken clouds.20 mph88%29.71 "HgN/A
7:50 am50 °FRain. Partly sunny.16 mph100%29.71 "Hg6 mi
7:28 am50 °FRain. Partly sunny.14 mph94%29.71 "Hg3 mi
6:51 am50 °FRain. Broken clouds.16 mph94%29.74 "Hg3 mi
6:50 am50 °FRain. Broken clouds.16 mph94%29.74 "Hg6 mi
6:30 am50 °FRain. Broken clouds.15 mph94%29.74 "HgN/A
6:20 am50 °FLight rain. Broken clouds.15 mph94%29.74 "HgN/A
5:50 am50 °FSprinkles. Partly sunny.13 mph88%29.74 "HgN/A
5:20 am50 °FSprinkles. Overcast.14 mph88%29.74 "HgN/A
4:50 am50 °FSprinkles. Partly sunny.14 mph88%29.74 "HgN/A
4:20 am50 °FMostly cloudy.14 mph88%29.77 "HgN/A
3:50 am50 °FPassing clouds.13 mph88%29.77 "HgN/A
3:20 am50 °FOvercast.9 mph88%29.77 "HgN/A
2:50 am50 °FOvercast.9 mph88%29.80 "HgN/A
2:20 am50 °FOvercast.6 mph88%29.83 "HgN/A
1:50 am50 °FPassing clouds.9 mph88%29.83 "HgN/A
1:20 am50 °FPassing clouds.10 mph88%29.83 "HgN/A
12:50 am50 °FPassing clouds.9 mph88%29.83 "HgN/A
12:20 am50 °FCool.9 mph88%29.86 "HgN/A
11:50 pm
Thu, May 23
50 °FCool.8 mph82%29.86 "HgN/A
11:20 pm52 °FCool.10 mph82%29.86 "HgN/A
Weather by CustomWeather, © 2019

See weather overview